Flag for Saint Kitts and Nevis Weather past 2 weeks in Basseterre, Saint Kitts and Nevis

Now
82 °F

Passing clouds.


Feels Like: 91 °F
Forecast: 82 / 85 °F
Wind: 8 mph from Northeast

Location: Golden Rock

Current Time: Sep 21, 2014 at 10:52:19 PM

Latest Report: Sep 21, 2014 at 10:00 PM


Visibility: N/A

Pressure: 30.01 "Hg

Humidity: 84%

Dew point: 77 °F

Location of BasseterreLocation

Historic Weather in Basseterre — Graph

°F

Basseterre temperature yesterday

Maximum temperature yesterday: 88 °F (at 2:00 PM)
Minimum temperature yesterday: 79 °F (at 9:00 PM)
Average temperature yesterday: 84 °F

Past Weeks' High & Low Weather Summary

 TemperatureHumidityPressure
High90 °F (Sep 13, 1:00 PM)89% (Sep 6, 9:00 PM)30.07 "Hg (Sep 6, 9:00 PM)
Low75 °F (Sep 6, 9:00 PM)59% (Sep 15, 3:00 PM)29.89 "Hg (Sep 17, 4:00 PM)
Average84 °F76%29.98 "Hg
* Reported Sep 6 9:00 PM — Sep 21 9:00 PM, Basseterre, Weather by CustomWeather, © 2014

Note: Actual official high and low records may vary slightly from our data, if they occured in-between our weather recording intervals... More about our weather records

Advertising

Basseterre weather history for previous 24 hours

 ConditionsComfort  
Time TempWeatherWind HumidityBarometerVisibility
9:00 PM
Sep 21
82 °FPassing clouds.12 mph84%29.98 "HgN/A
8:00 PM82 °FPassing clouds.8 mph84%29.98 "HgN/A
7:00 PM82 °FPassing clouds.7 mph84%29.95 "HgN/A
6:00 PM84 °FPassing clouds.13 mph79%29.95 "HgN/A
5:00 PM84 °FPassing clouds.13 mph84%29.92 "HgN/A
4:00 PM86 °FScattered clouds.15 mph79%29.95 "HgN/A
3:00 PM86 °FPassing clouds.14 mph79%29.95 "HgN/A
2:00 PM84 °FScattered clouds.13 mph84%29.98 "HgN/A
1:00 PM84 °FPassing clouds.13 mph89%30.01 "HgN/A
12:00 PM84 °FScattered showers. Passing clouds.14 mph79%30.01 "HgN/A
11:00 AM90 °FScattered showers. Passing clouds.17 mph71%30.04 "HgN/A
10:00 AM88 °FPassing clouds.20 mph70%30.04 "HgN/A
9:00 AM86 °FPassing clouds.16 mph75%30.04 "HgN/A
8:00 AM86 °FScattered clouds.18 mph75%30.01 "HgN/A
7:00 AM82 °FPassing clouds.14 mph89%29.98 "HgN/A
6:00 AM82 °FScattered clouds.14 mph84%29.95 "HgN/A
Weather by CustomWeather, © 2014

See weather overviewHow to use our weather pages